Time,TemperatureF,DewpointF,PressureIn,WindDirection,WindDirectionDegrees,WindSpeedMPH,WindSpeedGustMPH,Humidity,HourlyPrecipIn,Conditions,Clouds,dailyrainin,SoftwareType,DateUTC
2013-09-14 00:01:00,60.4,51.4,29.95,East,90,0.0,0.0,72,0.00,,CLR,0.00,VWS V12.08,2013-09-14 04:01:00,
2013-09-14 00:03:00,60.4,51.4,29.95,East,90,0.0,0.0,72,0.00,,CLR,0.00,VWS V12.08,2013-09-14 04:03:00,
2013-09-14 00:04:00,60.1,51.0,29.95,East,90,0.0,0.0,72,0.00,,CLR,0.00,VWS V12.08,2013-09-14 04:04:00,
2013-09-14 00:07:00,60.1,51.0,29.95,East,90,0.0,0.0,72,0.00,,CLR,0.00,VWS V12.08,2013-09-14 04:07:00,
2013-09-14 00:12:00,60.1,51.0,29.95,East,90,0.0,0.0,72,0.00,,CLR,0.00,VWS V12.08,2013-09-14 04:12:00,
2013-09-14 00:17:00,60.1,51.0,29.95,East,90,0.0,0.0,72,0.00,,CLR,0.00,VWS V12.08,2013-09-14 04:17:00,
2013-09-14 00:22:00,59.9,50.9,29.95,East,90,0.0,0.0,72,0.00,,CLR,0.00,VWS V12.08,2013-09-14 04:22:00,
2013-09-14 00:27:00,59.9,50.9,29.95,East,90,0.0,0.0,72,0.00,,CLR,0.00,VWS V12.08,2013-09-14 04:27:00,
2013-09-14 00:32:00,59.7,50.7,29.95,East,90,0.0,0.0,72,0.00,,CLR,0.00,VWS V12.08,2013-09-14 04:32:00,
2013-09-14 00:37:00,59.7,51.1,29.95,East,90,0.0,0.0,73,0.00,,CLR,0.00,VWS V12.08,2013-09-14 04:37:00,
2013-09-14 00:42:00,59.7,51.1,29.95,East,90,0.0,0.0,73,0.00,,CLR,0.00,VWS V12.08,2013-09-14 04:42:00,
2013-09-14 00:47:00,59.5,50.9,29.95,East,90,0.0,0.0,73,0.00,,CLR,0.00,VWS V12.08,2013-09-14 04:47:00,
2013-09-14 00:52:00,59.5,50.9,29.95,East,90,0.0,0.0,73,0.00,,CLR,0.00,VWS V12.08,2013-09-14 04:52:00,
2013-09-14 00:57:00,59.5,50.9,29.95,East,90,0.0,0.0,73,0.00,,CLR,0.00,VWS V12.08,2013-09-14 04:57:00,
2013-09-14 01:02:00,59.4,50.7,29.95,East,90,0.0,0.0,73,0.00,,CLR,0.00,VWS V12.08,2013-09-14 05:02:00,
2013-09-14 01:07:00,59.4,50.7,29.96,East,90,0.0,0.0,73,0.00,,CLR,0.00,VWS V12.08,2013-09-14 05:07:00,
2013-09-14 01:12:00,58.8,50.2,29.95,East,90,0.0,0.0,73,0.00,,CLR,0.00,VWS V12.08,2013-09-14 05:12:00,
2013-09-14 01:17:00,58.8,50.2,29.96,East,90,0.0,0.0,73,0.00,,CLR,0.00,VWS V12.08,2013-09-14 05:17:00,
2013-09-14 01:22:00,58.8,50.2,29.96,East,90,0.0,0.0,73,0.00,,CLR,0.00,VWS V12.08,2013-09-14 05:22:00,
2013-09-14 01:27:00,58.8,50.2,29.96,East,90,0.0,0.0,73,0.00,,CLR,0.00,VWS V12.08,2013-09-14 05:27:00,
2013-09-14 01:32:00,58.8,50.2,29.96,East,90,0.0,0.0,73,0.00,,CLR,0.00,VWS V12.08,2013-09-14 05:32:00,
2013-09-14 01:37:00,58.8,50.2,29.96,East,90,0.0,0.0,73,0.00,,CLR,0.00,VWS V12.08,2013-09-14 05:37:00,
2013-09-14 01:42:00,58.6,50.4,29.96,East,90,0.0,0.0,74,0.00,,CLR,0.00,VWS V12.08,2013-09-14 05:42:00,
2013-09-14 01:47:00,58.5,50.2,29.96,East,90,0.0,0.0,74,0.00,,CLR,0.00,VWS V12.08,2013-09-14 05:47:00,
2013-09-14 01:52:00,58.5,50.2,29.96,East,90,0.0,0.0,74,0.00,,CLR,0.00,VWS V12.08,2013-09-14 05:52:00,
2013-09-14 01:57:00,58.3,50.0,29.96,East,90,0.0,0.0,74,0.00,,CLR,0.00,VWS V12.08,2013-09-14 05:57:00,
2013-09-14 02:02:00,58.1,49.9,29.96,East,90,0.0,0.0,74,0.00,,CLR,0.00,VWS V12.08,2013-09-14 06:02:00,
2013-09-14 02:07:00,58.1,49.9,29.96,East,90,0.0,0.0,74,0.00,,CLR,0.00,VWS V12.08,2013-09-14 06:07:00,
2013-09-14 02:12:00,57.9,49.7,29.96,East,90,0.0,0.0,74,0.00,,CLR,0.00,VWS V12.08,2013-09-14 06:12:00,
2013-09-14 02:17:00,57.9,49.7,29.96,East,90,0.0,0.0,74,0.00,,CLR,0.00,VWS V12.08,2013-09-14 06:17:00,
2013-09-14 02:22:00,57.9,49.7,29.96,East,90,0.0,0.0,74,0.00,,CLR,0.00,VWS V12.08,2013-09-14 06:22:00,
2013-09-14 02:27:00,57.9,49.7,29.96,East,90,0.0,0.0,74,0.00,,CLR,0.00,VWS V12.08,2013-09-14 06:27:00,
2013-09-14 02:32:00,57.9,49.7,29.96,East,90,0.0,0.0,74,0.00,,CLR,0.00,VWS V12.08,2013-09-14 06:32:00,
2013-09-14 02:37:00,57.9,49.7,29.96,East,90,0.0,0.0,74,0.00,,CLR,0.00,VWS V12.08,2013-09-14 06:37:00,
2013-09-14 02:42:00,57.4,49.5,29.96,East,90,0.0,0.0,75,0.00,,CLR,0.00,VWS V12.08,2013-09-14 06:42:00,
2013-09-14 02:47:00,57.0,49.2,29.96,East,90,0.0,0.0,75,0.00,,CLR,0.00,VWS V12.08,2013-09-14 06:47:00,
2013-09-14 02:52:00,57.0,49.2,29.96,East,90,0.0,0.0,75,0.00,,CLR,0.00,VWS V12.08,2013-09-14 06:52:00,
2013-09-14 02:57:00,57.0,49.2,29.96,East,90,0.0,0.0,75,0.00,,CLR,0.00,VWS V12.08,2013-09-14 06:57:00,
2013-09-14 03:02:00,57.0,49.2,29.96,East,90,0.0,0.0,75,0.00,,CLR,0.00,VWS V12.08,2013-09-14 07:02:00,
2013-09-14 03:07:00,56.8,49.4,29.96,East,90,0.0,0.0,76,0.00,,CLR,0.00,VWS V12.08,2013-09-14 07:07:00,
2013-09-14 03:12:00,56.8,49.4,29.96,East,90,0.0,0.0,76,0.00,,CLR,0.00,VWS V12.08,2013-09-14 07:12:00,
2013-09-14 03:17:00,56.7,49.2,29.96,East,90,0.0,0.0,76,0.00,,CLR,0.00,VWS V12.08,2013-09-14 07:17:00,
2013-09-14 03:22:00,56.5,49.0,29.96,East,90,0.0,0.0,76,0.00,,CLR,0.00,VWS V12.08,2013-09-14 07:22:00,
2013-09-14 03:27:00,56.5,49.0,29.96,East,90,0.0,0.0,76,0.00,,CLR,0.00,VWS V12.08,2013-09-14 07:27:00,
2013-09-14 03:32:00,56.5,49.0,29.96,East,90,0.0,0.0,76,0.00,,CLR,0.00,VWS V12.08,2013-09-14 07:32:00,
2013-09-14 03:37:00,56.5,49.0,29.96,East,90,0.0,0.0,76,0.00,,CLR,0.00,VWS V12.08,2013-09-14 07:37:00,
2013-09-14 03:42:00,56.3,48.8,29.96,East,90,0.0,0.0,76,0.00,,CLR,0.00,VWS V12.08,2013-09-14 07:42:00,
2013-09-14 03:47:00,56.1,49.0,29.96,East,90,0.0,0.0,77,0.00,,CLR,0.00,VWS V12.08,2013-09-14 07:47:00,
2013-09-14 03:52:00,56.1,49.0,29.96,East,90,0.0,0.0,77,0.00,,CLR,0.00,VWS V12.08,2013-09-14 07:52:00,
2013-09-14 03:57:00,56.1,49.0,29.97,East,90,0.0,0.0,77,0.00,,CLR,0.00,VWS V12.08,2013-09-14 07:57:00,
2013-09-14 04:02:00,55.9,48.8,29.96,East,90,0.0,0.0,77,0.00,,CLR,0.00,VWS V12.08,2013-09-14 08:02:00,
2013-09-14 04:07:00,55.9,48.8,29.96,East,90,0.0,0.0,77,0.00,,CLR,0.00,VWS V12.08,2013-09-14 08:07:00,
2013-09-14 04:12:00,55.8,48.7,29.96,East,90,0.0,0.0,77,0.00,,CLR,0.00,VWS V12.08,2013-09-14 08:12:00,
2013-09-14 04:17:00,55.8,48.7,29.96,East,90,0.0,0.0,77,0.00,,CLR,0.00,VWS V12.08,2013-09-14 08:17:00,
2013-09-14 04:22:00,55.8,48.7,29.96,East,90,0.0,0.0,77,0.00,,CLR,0.00,VWS V12.08,2013-09-14 08:22:00,
2013-09-14 04:27:00,55.8,48.7,29.96,East,90,0.0,0.0,77,0.00,,CLR,0.00,VWS V12.08,2013-09-14 08:27:00,
2013-09-14 04:32:00,55.6,48.5,29.96,East,90,0.0,0.0,77,0.00,,CLR,0.00,VWS V12.08,2013-09-14 08:32:00,
2013-09-14 04:37:00,55.6,48.5,29.96,East,90,0.0,0.0,77,0.00,,CLR,0.00,VWS V12.08,2013-09-14 08:37:00,
2013-09-14 04:42:00,55.6,48.5,29.96,East,90,0.0,0.0,77,0.00,,CLR,0.00,VWS V12.08,2013-09-14 08:42:00,
2013-09-14 04:47:00,55.6,48.5,29.97,East,90,0.0,0.0,77,0.00,,CLR,0.00,VWS V12.08,2013-09-14 08:47:00,
2013-09-14 04:52:00,55.4,48.3,29.97,East,90,0.0,0.0,77,0.00,,CLR,0.00,VWS V12.08,2013-09-14 08:52:00,
2013-09-14 04:57:00,55.2,48.2,29.97,East,90,0.0,0.0,77,0.00,,CLR,0.00,VWS V12.08,2013-09-14 08:57:00,
2013-09-14 05:02:00,55.2,48.2,29.98,East,90,0.0,0.0,77,0.00,,CLR,0.00,VWS V12.08,2013-09-14 09:02:00,
2013-09-14 05:07:00,55.2,48.2,29.97,East,90,0.0,0.0,77,0.00,,CLR,0.00,VWS V12.08,2013-09-14 09:07:00,
2013-09-14 05:12:00,55.2,48.2,29.97,East,90,0.0,0.0,77,0.00,,CLR,0.00,VWS V12.08,2013-09-14 09:12:00,
2013-09-14 05:17:00,55.2,48.2,29.98,East,90,0.0,0.0,77,0.00,,CLR,0.00,VWS V12.08,2013-09-14 09:17:00,
2013-09-14 05:22:00,55.2,48.2,29.98,East,90,0.0,0.0,77,0.00,,CLR,0.00,VWS V12.08,2013-09-14 09:22:00,
2013-09-14 05:27:00,55.0,48.0,29.98,East,90,0.0,0.0,77,0.00,,CLR,0.00,VWS V12.08,2013-09-14 09:27:00,
2013-09-14 05:32:00,55.0,48.0,29.98,East,90,0.0,0.0,77,0.00,,CLR,0.00,VWS V12.08,2013-09-14 09:32:00,
2013-09-14 05:37:00,55.0,48.0,29.98,East,90,0.0,0.0,77,0.00,,CLR,0.00,VWS V12.08,2013-09-14 09:37:00,
2013-09-14 05:42:00,55.0,48.0,29.98,East,90,0.0,0.0,77,0.00,,CLR,0.00,VWS V12.08,2013-09-14 09:42:00,
2013-09-14 05:47:00,55.0,48.0,29.98,East,90,0.0,0.0,77,0.00,,CLR,0.00,VWS V12.08,2013-09-14 09:47:00,
2013-09-14 05:52:00,54.9,47.8,29.98,East,90,0.0,0.0,77,0.00,,CLR,0.00,VWS V12.08,2013-09-14 09:52:00,
2013-09-14 05:57:00,55.0,48.0,29.98,East,90,0.0,0.0,77,0.00,,CLR,0.00,VWS V12.08,2013-09-14 09:57:00,
2013-09-14 06:02:00,55.2,48.5,29.99,East,90,0.0,0.0,78,0.00,,CLR,0.00,VWS V12.08,2013-09-14 10:02:00,
2013-09-14 06:07:00,55.2,48.5,29.99,East,90,0.0,0.0,78,0.00,,CLR,0.00,VWS V12.08,2013-09-14 10:07:00,
2013-09-14 06:12:00,55.2,48.5,29.99,East,90,0.0,0.0,78,0.00,,CLR,0.00,VWS V12.08,2013-09-14 10:12:00,
2013-09-14 06:17:00,55.2,48.2,30.00,East,90,0.0,0.0,77,0.00,,CLR,0.00,VWS V12.08,2013-09-14 10:17:00,
2013-09-14 06:22:00,55.2,48.2,30.00,East,90,0.0,0.0,77,0.00,,CLR,0.00,VWS V12.08,2013-09-14 10:22:00,
2013-09-14 06:27:00,55.2,48.2,30.00,East,90,0.0,0.0,77,0.00,,CLR,0.00,VWS V12.08,2013-09-14 10:27:00,
2013-09-14 06:32:00,55.2,48.2,30.00,East,90,0.0,0.0,77,0.00,,CLR,0.00,VWS V12.08,2013-09-14 10:32:00,
2013-09-14 06:37:00,55.0,48.0,30.00,East,90,0.0,0.0,77,0.00,,CLR,0.00,VWS V12.08,2013-09-14 10:37:00,
2013-09-14 06:42:00,55.0,48.0,30.01,East,90,0.0,0.0,77,0.00,,CLR,0.00,VWS V12.08,2013-09-14 10:42:00,
2013-09-14 06:47:00,55.0,48.0,30.01,East,90,0.0,0.0,77,0.00,,CLR,0.00,VWS V12.08,2013-09-14 10:47:00,
2013-09-14 06:52:00,55.0,48.0,30.01,East,90,0.0,0.0,77,0.00,,CLR,0.00,VWS V12.08,2013-09-14 10:52:00,
2013-09-14 06:57:00,55.0,48.0,30.01,East,90,0.0,0.0,77,0.00,,CLR,0.00,VWS V12.08,2013-09-14 10:57:00,
2013-09-14 07:02:00,54.9,47.8,30.01,East,90,0.0,0.0,77,0.00,,CLR,0.00,VWS V12.08,2013-09-14 11:02:00,
2013-09-14 07:07:00,54.7,47.6,30.01,East,90,0.0,0.0,77,0.00,,CLR,0.00,VWS V12.08,2013-09-14 11:07:00,
2013-09-14 07:12:00,54.7,47.6,30.01,East,90,0.0,0.0,77,0.00,,CLR,0.00,VWS V12.08,2013-09-14 11:12:00,
2013-09-14 07:17:00,54.5,47.5,30.02,East,90,0.0,0.0,77,0.00,,CLR,0.00,VWS V12.08,2013-09-14 11:17:00,
2013-09-14 07:22:00,54.5,47.5,30.02,East,90,0.0,0.0,77,0.00,,CLR,0.00,VWS V12.08,2013-09-14 11:22:00,
2013-09-14 07:27:00,54.3,47.3,30.02,East,90,0.0,0.0,77,0.00,,CLR,0.00,VWS V12.08,2013-09-14 11:27:00,
2013-09-14 07:32:00,54.3,47.3,30.02,East,90,0.0,0.0,77,0.00,,CLR,0.00,VWS V12.08,2013-09-14 11:32:00,
2013-09-14 07:37:00,54.3,47.3,30.03,East,90,0.0,0.0,77,0.00,,CLR,0.00,VWS V12.08,2013-09-14 11:37:00,
2013-09-14 07:42:00,54.3,47.3,30.03,East,90,0.0,0.0,77,0.00,,CLR,0.00,VWS V12.08,2013-09-14 11:42:00,
2013-09-14 07:47:00,54.5,47.8,30.03,East,90,0.0,0.0,78,0.00,,CLR,0.00,VWS V12.08,2013-09-14 11:47:00,
2013-09-14 07:52:00,54.5,47.8,30.04,East,90,0.0,0.0,78,0.00,,CLR,0.00,VWS V12.08,2013-09-14 11:52:00,
2013-09-14 07:57:00,54.5,47.8,30.04,East,90,0.0,0.0,78,0.00,,CLR,0.00,VWS V12.08,2013-09-14 11:57:00,
2013-09-14 08:02:00,54.7,48.0,30.05,East,90,0.0,0.0,78,0.00,,CLR,0.00,VWS V12.08,2013-09-14 12:02:00,
2013-09-14 08:07:00,54.7,48.0,30.05,East,90,0.0,0.0,78,0.00,,CLR,0.00,VWS V12.08,2013-09-14 12:07:00,
2013-09-14 08:12:00,55.0,48.3,30.05,East,90,0.0,0.0,78,0.00,,CLR,0.00,VWS V12.08,2013-09-14 12:12:00,
2013-09-14 08:17:00,55.0,48.3,30.05,East,90,0.0,0.0,78,0.00,,CLR,0.00,VWS V12.08,2013-09-14 12:17:00,
2013-09-14 08:22:00,55.0,48.3,30.05,East,90,0.0,0.0,78,0.00,,CLR,0.00,VWS V12.08,2013-09-14 12:22:00,
2013-09-14 08:27:00,55.2,48.5,30.05,East,90,0.0,0.0,78,0.00,,CLR,0.00,VWS V12.08,2013-09-14 12:27:00,
2013-09-14 08:32:00,55.2,48.5,30.05,East,90,0.0,0.0,78,0.00,,CLR,0.00,VWS V12.08,2013-09-14 12:32:00,
2013-09-14 08:37:00,55.2,48.5,30.05,East,90,0.0,0.0,78,0.00,,CLR,0.00,VWS V12.08,2013-09-14 12:37:00,
2013-09-14 08:42:00,55.2,48.5,30.05,East,90,0.0,0.0,78,0.00,,CLR,0.00,VWS V12.08,2013-09-14 12:42:00,
2013-09-14 08:47:00,55.2,48.5,30.05,East,90,0.0,0.0,78,0.00,,CLR,0.00,VWS V12.08,2013-09-14 12:47:00,
2013-09-14 08:52:00,55.2,48.5,30.06,East,90,0.0,0.0,78,0.00,,CLR,0.00,VWS V12.08,2013-09-14 12:52:00,
2013-09-14 08:57:00,55.2,48.5,30.06,East,90,0.0,0.0,78,0.00,,CLR,0.00,VWS V12.08,2013-09-14 12:57:00,
2013-09-14 09:02:00,56.1,49.0,30.06,East,90,0.0,0.0,77,0.00,,CLR,0.00,VWS V12.08,2013-09-14 13:02:00,
2013-09-14 09:07:00,56.1,48.7,30.06,East,90,0.0,0.0,76,0.00,,CLR,0.00,VWS V12.08,2013-09-14 13:07:00,
2013-09-14 09:12:00,56.1,48.7,30.06,ENE,68,0.0,0.0,76,0.00,,CLR,0.00,VWS V12.08,2013-09-14 13:12:00,
2013-09-14 09:17:00,56.5,48.7,30.07,ENE,68,0.0,0.0,75,0.00,,CLR,0.00,VWS V12.08,2013-09-14 13:17:00,
2013-09-14 09:22:00,56.8,48.7,30.07,ENE,68,0.0,0.0,74,0.00,,CLR,0.00,VWS V12.08,2013-09-14 13:22:00,
2013-09-14 09:27:00,56.8,48.7,30.07,ENE,68,0.0,0.0,74,0.00,,CLR,0.00,VWS V12.08,2013-09-14 13:27:00,
2013-09-14 09:32:00,57.4,48.8,30.07,North,0,0.0,0.0,73,0.00,,CLR,0.00,VWS V12.08,2013-09-14 13:32:00,
2013-09-14 09:37:00,57.6,49.3,30.08,North,0,0.0,0.0,74,0.00,,CLR,0.00,VWS V12.08,2013-09-14 13:37:00,
2013-09-14 09:42:00,57.6,49.3,30.08,North,0,0.0,0.0,74,0.00,,CLR,0.00,VWS V12.08,2013-09-14 13:42:00,
2013-09-14 09:47:00,58.1,49.9,30.08,NW,315,0.0,0.0,74,0.00,,CLR,0.00,VWS V12.08,2013-09-14 13:47:00,
2013-09-14 09:52:00,58.1,49.9,30.08,NW,315,0.0,0.0,74,0.00,,CLR,0.00,VWS V12.08,2013-09-14 13:52:00,
2013-09-14 09:57:00,58.5,49.8,30.09,West,270,0.0,0.0,73,0.00,,CLR,0.00,VWS V12.08,2013-09-14 13:57:00,
2013-09-14 10:02:00,58.8,49.8,30.08,WNW,292,0.0,0.0,72,0.00,,CLR,0.00,VWS V12.08,2013-09-14 14:02:00,
2013-09-14 10:07:00,58.8,49.8,30.08,WNW,292,0.0,0.0,72,0.00,,CLR,0.00,VWS V12.08,2013-09-14 14:07:00,
2013-09-14 10:12:00,59.0,50.0,30.09,WNW,292,1.3,1.3,72,0.00,,CLR,0.00,VWS V12.08,2013-09-14 14:12:00,
2013-09-14 10:17:00,59.5,50.1,30.08,WNW,292,0.0,1.3,71,0.00,,CLR,0.00,VWS V12.08,2013-09-14 14:17:00,
2013-09-14 10:22:00,59.9,50.9,30.08,NNW,338,0.0,0.0,72,0.00,,CLR,0.00,VWS V12.08,2013-09-14 14:22:00,
2013-09-14 10:27:00,60.6,51.2,30.08,NE,45,0.0,0.0,71,0.00,,CLR,0.00,VWS V12.08,2013-09-14 14:27:00,
2013-09-14 10:32:00,60.6,51.2,30.09,NE,45,0.0,0.0,71,0.00,,CLR,0.00,VWS V12.08,2013-09-14 14:32:00,
2013-09-14 10:37:00,61.3,51.5,30.08,NNE,22,0.0,0.0,70,0.00,,CLR,0.00,VWS V12.08,2013-09-14 14:37:00,
2013-09-14 10:42:00,61.9,51.6,30.08,NNW,338,0.0,0.0,69,0.00,,CLR,0.00,VWS V12.08,2013-09-14 14:42:00,
2013-09-14 10:47:00,62.2,51.6,30.08,NNW,338,0.0,0.0,68,0.00,,CLR,0.00,VWS V12.08,2013-09-14 14:47:00,
2013-09-14 10:52:00,62.2,51.6,30.08,NNW,338,0.0,0.0,68,0.00,,CLR,0.00,VWS V12.08,2013-09-14 14:52:00,
2013-09-14 10:57:00,62.2,51.6,30.08,NNW,338,0.0,0.0,68,0.00,,CLR,0.00,VWS V12.08,2013-09-14 14:57:00,
2013-09-14 11:02:00,62.2,51.6,30.08,NNW,338,0.0,0.0,68,0.00,,CLR,0.00,VWS V12.08,2013-09-14 15:02:00,
2013-09-14 11:07:00,62.2,51.6,30.08,NNW,338,0.0,0.0,68,0.00,,CLR,0.00,VWS V12.08,2013-09-14 15:07:00,
2013-09-14 11:12:00,63.3,51.8,30.08,NW,315,0.0,0.2,66,0.00,,CLR,0.00,VWS V12.08,2013-09-14 15:12:00,
2013-09-14 11:17:00,63.5,52.4,30.08,NNW,338,0.0,0.2,67,0.00,,CLR,0.00,VWS V12.08,2013-09-14 15:17:00,
2013-09-14 11:22:00,64.0,52.5,30.08,NNW,338,0.0,0.0,66,0.00,,CLR,0.00,VWS V12.08,2013-09-14 15:22:00,
2013-09-14 11:27:00,64.2,52.2,30.08,East,90,0.0,2.9,65,0.00,,CLR,0.00,VWS V12.08,2013-09-14 15:27:00,
2013-09-14 11:32:00,64.6,52.6,30.08,WNW,292,3.4,3.4,65,0.00,,CLR,0.00,VWS V12.08,2013-09-14 15:32:00,
2013-09-14 11:37:00,64.8,52.7,30.08,NE,45,0.0,3.4,65,0.00,,CLR,0.00,VWS V12.08,2013-09-14 15:37:00,
2013-09-14 11:42:00,65.5,53.4,30.08,SSW,202,0.0,0.0,65,0.00,,CLR,0.00,VWS V12.08,2013-09-14 15:42:00,
2013-09-14 11:47:00,66.0,53.9,30.08,ENE,68,0.0,0.0,65,0.00,,CLR,0.00,VWS V12.08,2013-09-14 15:47:00,
2013-09-14 11:52:00,66.4,54.3,30.08,SW,225,0.0,0.0,65,0.00,,CLR,0.00,VWS V12.08,2013-09-14 15:52:00,
2013-09-14 11:57:00,67.3,54.3,30.08,West,270,0.0,3.8,63,0.00,,CLR,0.00,VWS V12.08,2013-09-14 15:57:00,
2013-09-14 12:02:00,67.8,54.8,30.08,NW,315,1.1,5.4,63,0.00,,CLR,0.00,VWS V12.08,2013-09-14 16:02:00,
2013-09-14 12:07:00,68.4,54.8,30.08,WNW,292,0.0,5.4,62,0.00,,CLR,0.00,VWS V12.08,2013-09-14 16:07:00,
2013-09-14 12:12:00,68.7,53.8,30.08,West,270,2.2,5.4,59,0.00,,CLR,0.00,VWS V12.08,2013-09-14 16:12:00,
2013-09-14 12:17:00,68.9,54.0,30.08,NW,315,0.0,5.4,59,0.00,,CLR,0.00,VWS V12.08,2013-09-14 16:17:00,
2013-09-14 12:22:00,69.1,53.7,30.08,NW,315,5.4,5.4,58,0.00,,CLR,0.00,VWS V12.08,2013-09-14 16:22:00,
2013-09-14 12:27:00,69.4,54.5,30.08,ENE,68,0.0,5.4,59,0.00,,CLR,0.00,VWS V12.08,2013-09-14 16:27:00,
2013-09-14 12:32:00,69.6,54.2,30.08,NNW,338,0.0,5.4,58,0.00,,CLR,0.00,VWS V12.08,2013-09-14 16:32:00,
2013-09-14 12:37:00,70.0,54.1,30.07,West,270,0.7,5.6,57,0.00,,CLR,0.00,VWS V12.08,2013-09-14 16:37:00,
2013-09-14 12:42:00,69.6,54.2,30.08,NW,315,0.0,0.0,58,0.00,,CLR,0.00,VWS V12.08,2013-09-14 16:42:00,
2013-09-14 12:47:00,70.0,54.1,30.07,NW,315,0.0,7.2,57,0.00,,CLR,0.00,VWS V12.08,2013-09-14 16:47:00,
2013-09-14 12:52:00,70.3,54.4,30.07,West,270,1.3,7.2,57,0.00,,CLR,0.00,VWS V12.08,2013-09-14 16:52:00,
2013-09-14 12:57:00,70.7,54.2,30.07,NW,315,0.0,7.2,56,0.00,,CLR,0.00,VWS V12.08,2013-09-14 16:57:00,
2013-09-14 13:02:00,71.2,56.2,30.07,SE,135,0.0,0.0,59,0.00,,CLR,0.00,VWS V12.08,2013-09-14 17:02:00,
2013-09-14 13:07:00,71.8,55.3,30.07,WNW,292,0.0,1.6,56,0.00,,CLR,0.00,VWS V12.08,2013-09-14 17:07:00,
2013-09-14 13:12:00,72.3,56.2,30.06,WNW,292,0.0,2.2,57,0.00,,CLR,0.00,VWS V12.08,2013-09-14 17:12:00,
2013-09-14 13:17:00,72.5,55.4,30.06,North,0,0.0,5.4,55,0.00,,CLR,0.00,VWS V12.08,2013-09-14 17:17:00,
2013-09-14 13:22:00,72.9,56.3,30.06,WNW,292,0.0,0.0,56,0.00,,CLR,0.00,VWS V12.08,2013-09-14 17:22:00,
2013-09-14 13:27:00,73.0,57.4,30.06,SW,225,0.0,2.5,58,0.00,,CLR,0.00,VWS V12.08,2013-09-14 17:27:00,
2013-09-14 13:32:00,73.4,57.7,30.06,SE,135,0.0,2.5,58,0.00,,CLR,0.00,VWS V12.08,2013-09-14 17:32:00,
2013-09-14 13:37:00,73.9,57.3,30.06,ENE,68,1.3,2.5,56,0.00,,CLR,0.00,VWS V12.08,2013-09-14 17:37:00,
2013-09-14 13:42:00,73.9,56.3,30.06,WNW,292,4.5,6.0,54,0.00,,CLR,0.00,VWS V12.08,2013-09-14 17:42:00,
2013-09-14 13:47:00,73.8,55.6,30.06,WNW,292,6.0,6.0,53,0.00,,CLR,0.00,VWS V12.08,2013-09-14 17:47:00,
2013-09-14 13:52:00,73.6,54.9,30.06,NNE,22,0.0,6.5,52,0.00,,CLR,0.00,VWS V12.08,2013-09-14 17:52:00,
2013-09-14 13:57:00,73.4,54.7,30.06,WNW,292,0.9,6.5,52,0.00,,CLR,0.00,VWS V12.08,2013-09-14 17:57:00,
2013-09-14 14:02:00,73.0,54.4,30.06,NW,315,2.9,2.9,52,0.00,,CLR,0.00,VWS V12.08,2013-09-14 18:02:00,
2013-09-14 14:07:00,73.2,54.6,30.05,North,0,0.0,3.4,52,0.00,,CLR,0.00,VWS V12.08,2013-09-14 18:07:00,
2013-09-14 14:12:00,73.4,55.2,30.05,WNW,292,0.0,5.8,53,0.00,,CLR,0.00,VWS V12.08,2013-09-14 18:12:00,
2013-09-14 14:17:00,73.6,55.9,30.05,NW,315,0.0,5.8,54,0.00,,CLR,0.00,VWS V12.08,2013-09-14 18:17:00,
2013-09-14 14:22:00,73.9,55.8,30.05,WNW,292,1.8,3.6,53,0.00,,CLR,0.00,VWS V12.08,2013-09-14 18:22:00,
2013-09-14 14:27:00,74.1,55.4,30.05,WNW,292,0.0,4.0,52,0.00,,CLR,0.00,VWS V12.08,2013-09-14 18:27:00,
2013-09-14 14:32:00,74.3,56.1,30.05,West,270,0.0,4.3,53,0.00,,CLR,0.00,VWS V12.08,2013-09-14 18:32:00,
2013-09-14 14:37:00,74.8,57.1,30.05,SW,225,0.0,4.3,54,0.00,,CLR,0.00,VWS V12.08,2013-09-14 18:37:00,
2013-09-14 14:42:00,75.0,57.8,30.05,SW,225,0.0,0.0,55,0.00,,CLR,0.00,VWS V12.08,2013-09-14 18:42:00,
2013-09-14 14:47:00,75.4,57.1,30.04,ENE,68,1.1,2.9,53,0.00,,CLR,0.00,VWS V12.08,2013-09-14 18:47:00,
2013-09-14 14:52:00,75.2,55.8,30.04,North,0,0.0,2.9,51,0.00,,CLR,0.00,VWS V12.08,2013-09-14 18:52:00,
2013-09-14 14:57:00,75.0,56.2,30.04,North,0,0.0,2.9,52,0.00,,CLR,0.00,VWS V12.08,2013-09-14 18:57:00,
2013-09-14 15:02:00,75.2,56.4,30.04,ENE,68,0.0,0.0,52,0.00,,CLR,0.00,VWS V12.08,2013-09-14 19:02:00,
2013-09-14 15:07:00,75.2,56.4,30.04,SE,135,0.0,0.0,52,0.00,,CLR,0.00,VWS V12.08,2013-09-14 19:07:00,
2013-09-14 15:12:00,75.4,56.5,30.04,ENE,68,0.0,3.6,52,0.00,,CLR,0.00,VWS V12.08,2013-09-14 19:12:00,
2013-09-14 15:17:00,75.6,57.2,30.04,ESE,112,0.0,3.6,53,0.00,,CLR,0.00,VWS V12.08,2013-09-14 19:17:00,
2013-09-14 15:22:00,75.7,56.3,30.04,SE,135,0.0,0.0,51,0.00,,CLR,0.00,VWS V12.08,2013-09-14 19:22:00,
2013-09-14 15:27:00,75.7,56.3,30.04,NE,45,0.0,2.0,51,0.00,,CLR,0.00,VWS V12.08,2013-09-14 19:27:00,
2013-09-14 15:32:00,75.7,56.3,30.04,ENE,68,0.9,2.0,51,0.00,,CLR,0.00,VWS V12.08,2013-09-14 19:32:00,
2013-09-14 15:37:00,75.7,56.9,30.04,ENE,68,0.0,2.2,52,0.00,,CLR,0.00,VWS V12.08,2013-09-14 19:37:00,
2013-09-14 15:42:00,75.7,56.9,30.03,NE,45,1.8,1.8,52,0.00,,CLR,0.00,VWS V12.08,2013-09-14 19:42:00,
2013-09-14 15:47:00,75.4,56.5,30.04,NE,45,0.0,1.8,52,0.00,,CLR,0.00,VWS V12.08,2013-09-14 19:47:00,
2013-09-14 15:52:00,75.4,57.1,30.04,NE,45,0.0,1.8,53,0.00,,CLR,0.00,VWS V12.08,2013-09-14 19:52:00,
2013-09-14 15:57:00,75.4,56.5,30.03,ENE,68,0.0,1.8,52,0.00,,CLR,0.00,VWS V12.08,2013-09-14 19:57:00,
2013-09-14 16:02:00,75.4,56.5,30.03,NE,45,1.6,1.6,52,0.00,,CLR,0.00,VWS V12.08,2013-09-14 20:02:00,
2013-09-14 16:07:00,75.2,55.3,30.03,WNW,292,0.0,1.8,50,0.00,,CLR,0.00,VWS V12.08,2013-09-14 20:07:00,
2013-09-14 16:12:00,75.0,56.2,30.03,WSW,248,0.0,1.8,52,0.00,,CLR,0.00,VWS V12.08,2013-09-14 20:12:00,
2013-09-14 16:17:00,75.4,57.1,30.03,East,90,0.0,1.8,53,0.00,,CLR,0.00,VWS V12.08,2013-09-14 20:17:00,
2013-09-14 16:22:00,75.6,55.6,30.04,West,270,0.0,1.6,50,0.00,,CLR,0.00,VWS V12.08,2013-09-14 20:22:00,
2013-09-14 16:27:00,75.6,56.7,30.03,West,270,0.0,1.6,52,0.00,,CLR,0.00,VWS V12.08,2013-09-14 20:27:00,
2013-09-14 16:32:00,75.7,56.9,30.04,NNW,338,0.0,1.6,52,0.00,,CLR,0.00,VWS V12.08,2013-09-14 20:32:00,
2013-09-14 16:37:00,75.7,56.9,30.04,East,90,0.0,1.6,52,0.00,,CLR,0.00,VWS V12.08,2013-09-14 20:37:00,
2013-09-14 16:42:00,75.7,57.9,30.04,East,90,0.0,1.6,54,0.00,,CLR,0.00,VWS V12.08,2013-09-14 20:42:00,
2013-09-14 16:47:00,75.7,57.4,30.04,ENE,68,0.0,1.6,53,0.00,,CLR,0.00,VWS V12.08,2013-09-14 20:47:00,
2013-09-14 16:52:00,75.6,56.7,30.04,ENE,68,0.0,1.6,52,0.00,,CLR,0.00,VWS V12.08,2013-09-14 20:52:00,
2013-09-14 16:57:00,75.0,56.2,30.04,ENE,68,0.0,1.6,52,0.00,,CLR,0.00,VWS V12.08,2013-09-14 20:57:00,
2013-09-14 17:02:00,74.7,56.4,30.04,ENE,68,0.0,0.0,53,0.00,,CLR,0.00,VWS V12.08,2013-09-14 21:02:00,
2013-09-14 17:07:00,74.1,56.4,30.05,ENE,68,0.0,0.0,54,0.00,,CLR,0.00,VWS V12.08,2013-09-14 21:07:00,
2013-09-14 17:12:00,74.1,57.4,30.05,ENE,68,0.0,0.0,56,0.00,,CLR,0.00,VWS V12.08,2013-09-14 21:12:00,
2013-09-14 17:17:00,73.9,57.8,30.04,ENE,68,0.0,0.0,57,0.00,,CLR,0.00,VWS V12.08,2013-09-14 21:17:00,
2013-09-14 17:22:00,73.9,58.2,30.04,ENE,68,0.0,0.0,58,0.00,,CLR,0.00,VWS V12.08,2013-09-14 21:22:00,
2013-09-14 17:27:00,74.1,58.4,30.05,ENE,68,0.0,0.0,58,0.00,,CLR,0.00,VWS V12.08,2013-09-14 21:27:00,
2013-09-14 17:32:00,73.9,58.7,30.05,ENE,68,0.0,0.0,59,0.00,,CLR,0.00,VWS V12.08,2013-09-14 21:32:00,
2013-09-14 17:37:00,73.8,59.0,30.05,East,90,0.0,0.0,60,0.00,,CLR,0.00,VWS V12.08,2013-09-14 21:37:00,
2013-09-14 17:42:00,73.6,58.8,30.05,ENE,68,0.0,0.0,60,0.00,,CLR,0.00,VWS V12.08,2013-09-14 21:42:00,
2013-09-14 17:47:00,73.2,58.5,30.05,ENE,68,0.0,0.0,60,0.00,,CLR,0.00,VWS V12.08,2013-09-14 21:47:00,
2013-09-14 17:52:00,73.2,59.0,30.06,ENE,68,0.0,0.0,61,0.00,,CLR,0.00,VWS V12.08,2013-09-14 21:52:00,
2013-09-14 17:57:00,73.0,58.3,30.05,ENE,68,0.0,0.0,60,0.00,,CLR,0.00,VWS V12.08,2013-09-14 21:57:00,
2013-09-14 18:02:00,72.7,58.5,30.05,ENE,68,0.0,0.0,61,0.00,,CLR,0.00,VWS V12.08,2013-09-14 22:02:00,
2013-09-14 18:07:00,72.7,58.5,30.05,ENE,68,0.0,0.0,61,0.00,,CLR,0.00,VWS V12.08,2013-09-14 22:07:00,
2013-09-14 18:12:00,72.3,58.6,30.06,East,90,0.0,0.0,62,0.00,,CLR,0.00,VWS V12.08,2013-09-14 22:12:00,
2013-09-14 18:17:00,72.3,58.6,30.05,East,90,0.0,0.0,62,0.00,,CLR,0.00,VWS V12.08,2013-09-14 22:17:00,
2013-09-14 18:22:00,72.0,58.2,30.05,East,90,0.0,0.0,62,0.00,,CLR,0.00,VWS V12.08,2013-09-14 22:22:00,
2013-09-14 18:27:00,71.8,58.1,30.05,East,90,0.0,0.0,62,0.00,,CLR,0.00,VWS V12.08,2013-09-14 22:27:00,
2013-09-14 18:32:00,71.4,58.2,30.06,East,90,0.0,0.0,63,0.00,,CLR,0.00,VWS V12.08,2013-09-14 22:32:00,
2013-09-14 18:37:00,71.2,58.5,30.06,East,90,0.0,0.0,64,0.00,,CLR,0.00,VWS V12.08,2013-09-14 22:37:00,
2013-09-14 18:42:00,70.9,58.1,30.06,East,90,0.0,0.0,64,0.00,,CLR,0.00,VWS V12.08,2013-09-14 22:42:00,
2013-09-14 18:47:00,70.9,58.1,30.06,East,90,0.0,0.0,64,0.00,,CLR,0.00,VWS V12.08,2013-09-14 22:47:00,
2013-09-14 18:50:00,70.7,58.4,30.06,East,90,0.0,0.0,65,0.00,,CLR,0.00,VWS V12.08,2013-09-14 22:50:00,
2013-09-14 18:55:00,70.5,58.2,30.06,East,90,0.0,0.0,65,0.00,,CLR,0.00,VWS V12.08,2013-09-14 22:55:00,
2013-09-14 19:00:00,70.3,58.0,30.06,East,90,0.0,0.0,65,0.00,,CLR,0.00,VWS V12.08,2013-09-14 23:00:00,
2013-09-14 19:05:00,70.0,58.1,30.05,East,90,0.0,0.0,66,0.00,,CLR,0.00,VWS V12.08,2013-09-14 23:05:00,
2013-09-14 19:10:00,69.6,57.8,30.06,East,90,0.0,0.0,66,0.00,,CLR,0.00,VWS V12.08,2013-09-14 23:10:00,
2013-09-14 19:15:00,69.4,57.6,30.06,East,90,0.0,0.0,66,0.00,,CLR,0.00,VWS V12.08,2013-09-14 23:15:00,
2013-09-14 19:20:00,69.1,57.7,30.06,East,90,0.0,0.0,67,0.00,,CLR,0.00,VWS V12.08,2013-09-14 23:20:00,
2013-09-14 19:25:00,68.5,57.6,30.06,East,90,0.0,0.0,68,0.00,,CLR,0.00,VWS V12.08,2013-09-14 23:25:00,
2013-09-14 19:30:00,68.2,57.2,30.06,East,90,0.0,0.0,68,0.00,,CLR,0.00,VWS V12.08,2013-09-14 23:30:00,
2013-09-14 19:35:00,67.6,56.7,30.06,East,90,0.0,0.0,68,0.00,,CLR,0.00,VWS V12.08,2013-09-14 23:35:00,
2013-09-14 19:40:00,67.3,56.4,30.06,East,90,0.0,0.0,68,0.00,,CLR,0.00,VWS V12.08,2013-09-14 23:40:00,
2013-09-14 19:45:00,66.9,56.4,30.06,East,90,0.0,0.0,69,0.00,,CLR,0.00,VWS V12.08,2013-09-14 23:45:00,
2013-09-14 19:50:00,66.6,56.1,30.06,East,90,0.0,0.0,69,0.00,,CLR,0.00,VWS V12.08,2013-09-14 23:50:00,
2013-09-14 19:55:00,66.0,55.6,30.06,East,90,0.0,0.0,69,0.00,,CLR,0.00,VWS V12.08,2013-09-14 23:55:00,
2013-09-14 20:00:00,66.0,56.0,30.06,East,90,0.0,0.0,70,0.00,,CLR,0.00,VWS V12.08,2013-09-15 00:00:00,
2013-09-14 20:05:00,66.0,56.0,30.06,East,90,0.0,0.0,70,0.00,,CLR,0.00,VWS V12.08,2013-09-15 00:05:00,
2013-09-14 20:10:00,65.1,55.1,30.07,East,90,0.0,0.0,70,0.00,,CLR,0.00,VWS V12.08,2013-09-15 00:10:00,
2013-09-14 20:15:00,65.1,55.1,30.07,East,90,0.0,0.0,70,0.00,,CLR,0.00,VWS V12.08,2013-09-15 00:15:00,
2013-09-14 20:20:00,64.6,55.0,30.07,East,90,0.0,0.0,71,0.00,,CLR,0.00,VWS V12.08,2013-09-15 00:20:00,
2013-09-14 20:25:00,64.2,55.0,30.07,East,90,0.0,0.0,72,0.00,,CLR,0.00,VWS V12.08,2013-09-15 00:25:00,
2013-09-14 20:30:00,63.9,54.7,30.07,East,90,0.0,0.0,72,0.00,,CLR,0.00,VWS V12.08,2013-09-15 00:30:00,
2013-09-14 20:35:00,63.7,54.5,30.07,East,90,0.0,0.0,72,0.00,,CLR,0.00,VWS V12.08,2013-09-15 00:35:00,
2013-09-14 20:40:00,63.1,54.0,30.08,East,90,0.0,0.0,72,0.00,,CLR,0.00,VWS V12.08,2013-09-15 00:40:00,
2013-09-14 20:45:00,63.1,54.0,30.08,East,90,0.0,0.0,72,0.00,,CLR,0.00,VWS V12.08,2013-09-15 00:45:00,
2013-09-14 20:50:00,62.4,53.7,30.09,East,90,0.0,0.0,73,0.00,,CLR,0.00,VWS V12.08,2013-09-15 00:50:00,
2013-09-14 20:55:00,62.2,53.5,30.09,East,90,0.0,0.0,73,0.00,,CLR,0.00,VWS V12.08,2013-09-15 00:55:00,
2013-09-14 21:00:00,61.9,53.1,30.09,East,90,0.0,0.0,73,0.00,,CLR,0.00,VWS V12.08,2013-09-15 01:00:00,
2013-09-14 21:05:00,61.7,53.3,30.09,East,90,0.0,0.0,74,0.00,,CLR,0.00,VWS V12.08,2013-09-15 01:05:00,
2013-09-14 21:10:00,61.5,53.2,30.09,ENE,68,0.0,0.0,74,0.00,,CLR,0.00,VWS V12.08,2013-09-15 01:10:00,
2013-09-14 21:15:00,61.3,53.4,30.09,ENE,68,0.0,0.0,75,0.00,,CLR,0.00,VWS V12.08,2013-09-15 01:15:00,
2013-09-14 21:20:00,61.3,53.4,30.09,ENE,68,0.0,0.0,75,0.00,,CLR,0.00,VWS V12.08,2013-09-15 01:20:00,
2013-09-14 21:25:00,61.2,53.2,30.09,ENE,68,0.0,0.0,75,0.00,,CLR,0.00,VWS V12.08,2013-09-15 01:25:00,
2013-09-14 21:30:00,61.2,53.5,30.09,ENE,68,0.0,0.0,76,0.00,,CLR,0.00,VWS V12.08,2013-09-15 01:30:00,
2013-09-14 21:35:00,61.2,53.5,30.10,ENE,68,0.0,0.0,76,0.00,,CLR,0.00,VWS V12.08,2013-09-15 01:35:00,
2013-09-14 21:40:00,61.0,53.4,30.10,ENE,68,0.0,0.0,76,0.00,,CLR,0.00,VWS V12.08,2013-09-15 01:40:00,
2013-09-14 21:45:00,61.0,53.4,30.10,ENE,68,0.0,0.0,76,0.00,,CLR,0.00,VWS V12.08,2013-09-15 01:45:00,
2013-09-14 21:50:00,60.1,52.5,30.10,ENE,68,0.0,0.0,76,0.00,,CLR,0.00,VWS V12.08,2013-09-15 01:50:00,
2013-09-14 21:55:00,60.1,52.5,30.11,ENE,68,0.0,0.0,76,0.00,,CLR,0.00,VWS V12.08,2013-09-15 01:55:00,
2013-09-14 22:00:00,60.1,52.9,30.10,ENE,68,0.0,0.0,77,0.00,,CLR,0.00,VWS V12.08,2013-09-15 02:00:00,
2013-09-14 22:05:00,60.1,52.9,30.10,ENE,68,0.0,0.0,77,0.00,,CLR,0.00,VWS V12.08,2013-09-15 02:05:00,
2013-09-14 22:10:00,59.5,52.3,30.10,East,90,0.0,0.0,77,0.00,,CLR,0.00,VWS V12.08,2013-09-15 02:10:00,
2013-09-14 22:15:00,59.4,52.2,30.09,East,90,0.0,0.0,77,0.00,,CLR,0.00,VWS V12.08,2013-09-15 02:15:00,
2013-09-14 22:20:00,59.2,52.0,30.10,East,90,0.0,0.0,77,0.00,,CLR,0.00,VWS V12.08,2013-09-15 02:20:00,
2013-09-14 22:25:00,58.8,52.0,30.10,East,90,0.0,0.0,78,0.00,,CLR,0.00,VWS V12.08,2013-09-15 02:25:00,
2013-09-14 22:30:00,59.0,52.2,30.10,East,90,0.0,0.0,78,0.00,,CLR,0.00,VWS V12.08,2013-09-15 02:30:00,
2013-09-14 22:35:00,58.8,52.0,30.10,East,90,0.0,0.0,78,0.00,,CLR,0.00,VWS V12.08,2013-09-15 02:35:00,
2013-09-14 22:40:00,58.8,52.0,30.10,East,90,0.0,0.0,78,0.00,,CLR,0.00,VWS V12.08,2013-09-15 02:40:00,
2013-09-14 22:45:00,58.6,51.8,30.10,East,90,0.0,0.0,78,0.00,,CLR,0.00,VWS V12.08,2013-09-15 02:45:00,
2013-09-14 22:50:00,58.6,52.2,30.11,East,90,0.0,0.0,79,0.00,,CLR,0.00,VWS V12.08,2013-09-15 02:50:00,
2013-09-14 22:55:00,58.3,51.8,30.11,East,90,0.0,0.0,79,0.00,,CLR,0.00,VWS V12.08,2013-09-15 02:55:00,
2013-09-14 23:00:00,58.3,51.8,30.11,East,90,0.0,0.0,79,0.00,,CLR,0.00,VWS V12.08,2013-09-15 03:00:00,
2013-09-14 23:05:00,58.1,51.6,30.11,East,90,0.0,0.0,79,0.00,,CLR,0.00,VWS V12.08,2013-09-15 03:05:00,
2013-09-14 23:10:00,57.9,51.5,30.11,East,90,0.0,0.0,79,0.00,,CLR,0.00,VWS V12.08,2013-09-15 03:10:00,
2013-09-14 23:15:00,57.9,51.8,30.12,East,90,0.0,0.0,80,0.00,,CLR,0.00,VWS V12.08,2013-09-15 03:15:00,
2013-09-14 23:20:00,57.7,51.6,30.12,East,90,0.0,0.0,80,0.00,,CLR,0.00,VWS V12.08,2013-09-15 03:20:00,
2013-09-14 23:25:00,57.6,51.5,30.12,East,90,0.0,0.0,80,0.00,,CLR,0.00,VWS V12.08,2013-09-15 03:25:00,
2013-09-14 23:30:00,57.4,51.3,30.12,East,90,0.0,0.0,80,0.00,,CLR,0.00,VWS V12.08,2013-09-15 03:30:00,
2013-09-14 23:35:00,57.4,51.6,30.12,East,90,0.0,0.0,81,0.00,,CLR,0.00,VWS V12.08,2013-09-15 03:35:00,
2013-09-14 23:40:00,57.4,51.6,30.13,East,90,0.0,0.0,81,0.00,,CLR,0.00,VWS V12.08,2013-09-15 03:40:00,
2013-09-14 23:45:00,57.0,51.3,30.12,East,90,0.0,0.0,81,0.00,,CLR,0.00,VWS V12.08,2013-09-15 03:45:00,
2013-09-14 23:50:00,57.0,51.3,30.12,East,90,0.0,0.0,81,0.00,,CLR,0.00,VWS V12.08,2013-09-15 03:50:00,
2013-09-14 23:55:00,57.0,51.3,30.12,East,90,0.0,0.0,81,0.00,,CLR,0.00,VWS V12.08,2013-09-15 03:55:00,